TRA5061 EHRD-LEGE

Flight info

Callsign TRA5061
Flight time N/A
Altitude 37000
Route WOODY N872 MEDIL DCT KOVIN DCT DUCRA DCT RESMI DCT DEKOD DCT DISAK DCT DIRMO DCT VALKU DCT ATSUP DCT MINSO DCT DEGOL DCT PPG A27 KANIG
Aircraft B738/M-SDE2E3FGHIJ1RWXYZ/LB1

Departure

Time N/A
Airport Rotterdam The Hague Airport (EHRD)

Arrival

Time 2026-04-24 19:55
Airport Girona-Costa Brava Airport (LEGE)
Time Latitude Longitude Altitude Speed Heading
2026-04-24 19:07 46.65135 2.44632 37082 ft 456 kts 161°
2026-04-24 19:08 46.59115 2.48096 37087 ft 455 kts 161°
2026-04-24 19:08 46.53232 2.51475 37080 ft 454 kts 161°
2026-04-24 19:09 46.47356 2.54840 37082 ft 453 kts 161°
2026-04-24 19:09 46.41491 2.58192 37087 ft 453 kts 161°
2026-04-24 19:10 46.35634 2.61531 37091 ft 452 kts 161°
2026-04-24 19:10 46.29784 2.64860 37081 ft 452 kts 161°
2026-04-24 19:11 46.23936 2.68178 37094 ft 451 kts 161°
2026-04-24 19:11 46.18094 2.71486 37089 ft 451 kts 161°
2026-04-24 19:12 46.12262 2.74782 37090 ft 450 kts 161°
2026-04-24 19:12 46.06438 2.78066 37096 ft 449 kts 161°
2026-04-24 19:13 46.02422 2.80326 37102 ft 448 kts 161°
2026-04-24 19:13 45.95615 2.84067 37094 ft 447 kts 162°
2026-04-24 19:14 45.89778 2.87133 37087 ft 446 kts 163°
2026-04-24 19:14 45.83948 2.90205 37104 ft 446 kts 162°
2026-04-24 19:15 45.78131 2.93278 37100 ft 446 kts 162°
2026-04-24 19:15 45.72162 2.95295 37102 ft 439 kts 179°
2026-04-24 19:16 45.63063 2.95087 37100 ft 435 kts 185°
2026-04-24 19:16 45.57007 2.94852 37098 ft 435 kts 184°
2026-04-24 19:17 45.50950 2.94664 37099 ft 435 kts 184°
2026-04-24 19:17 45.45915 2.94526 37105 ft 436 kts 184°
2026-04-24 19:18 45.39697 2.94361 37106 ft 436 kts 184°
2026-04-24 19:18 45.33632 2.94199 37106 ft 436 kts 184°
2026-04-24 19:19 45.27563 2.94037 37112 ft 436 kts 184°
2026-04-24 19:19 45.21489 2.93874 37116 ft 437 kts 183°
2026-04-24 19:20 45.15445 2.93713 37112 ft 437 kts 183°
2026-04-24 19:20 45.09359 2.93551 37120 ft 437 kts 183°
2026-04-24 19:21 45.03270 2.93389 37122 ft 438 kts 183°
2026-04-24 19:21 44.97183 2.93227 37125 ft 438 kts 183°
2026-04-24 19:22 44.91097 2.93066 37128 ft 438 kts 183°
2026-04-24 19:22 44.85991 2.92931 37132 ft 438 kts 183°
2026-04-24 19:23 44.79880 2.92632 37126 ft 438 kts 185°
2026-04-24 19:23 44.73797 2.92146 37131 ft 438 kts 185°
2026-04-24 19:24 44.67710 2.91662 37126 ft 438 kts 185°
2026-04-24 19:24 44.61621 2.91204 37131 ft 438 kts 185°
2026-04-24 19:25 44.55533 2.90759 37134 ft 438 kts 185°
2026-04-24 19:25 44.49449 2.90318 37133 ft 438 kts 184°
2026-04-24 19:26 44.43360 2.89877 37138 ft 438 kts 184°
2026-04-24 19:26 44.37279 2.89437 37136 ft 438 kts 184°
2026-04-24 19:27 44.31196 2.88998 37140 ft 438 kts 184°
2026-04-24 19:27 44.26455 2.88656 37138 ft 438 kts 184°
2026-04-24 19:28 44.20296 2.88213 37142 ft 438 kts 184°
2026-04-24 19:28 44.14209 2.87775 37012 ft 440 kts 184°
2026-04-24 19:29 44.08119 2.87339 35982 ft 439 kts 184°
2026-04-24 19:29 44.05024 2.87118 35414 ft 439 kts 184°
2026-04-24 19:29 44.02034 2.86905 35017 ft 434 kts 184°
2026-04-24 19:30 43.99029 2.86690 34579 ft 431 kts 184°
2026-04-24 19:30 43.96044 2.86477 34164 ft 428 kts 184°
2026-04-24 19:30 43.93086 2.86266 33697 ft 425 kts 184°
2026-04-24 19:30 43.90145 2.86057 33248 ft 421 kts 184°
2026-04-24 19:31 43.87231 2.85849 32821 ft 418 kts 184°
2026-04-24 19:31 43.84341 2.85644 32413 ft 414 kts 184°
2026-04-24 19:31 43.81474 2.85440 31997 ft 411 kts 184°
2026-04-24 19:31 43.78627 2.85239 31593 ft 408 kts 184°
2026-04-24 19:32 43.75798 2.85136 31200 ft 405 kts 181°
2026-04-24 19:32 43.72984 2.85156 30808 ft 403 kts 180°
2026-04-24 19:32 43.70191 2.85222 30416 ft 401 kts 180°
2026-04-24 19:32 43.68350 2.85271 30153 ft 399 kts 180°
2026-04-24 19:33 43.65423 2.85345 29674 ft 396 kts 180°
2026-04-24 19:33 43.63605 2.85386 29385 ft 394 kts 180°
2026-04-24 19:33 43.60874 2.85441 28975 ft 391 kts 180°
2026-04-24 19:33 43.58166 2.85490 28562 ft 388 kts 180°
2026-04-24 19:34 43.55479 2.85533 28161 ft 385 kts 180°
2026-04-24 19:34 43.52812 2.85574 27761 ft 382 kts 180°
2026-04-24 19:34 43.50164 2.85613 27349 ft 379 kts 180°
2026-04-24 19:34 43.47534 2.85651 26958 ft 377 kts 180°
2026-04-24 19:35 43.44917 2.85689 26564 ft 375 kts 180°
2026-04-24 19:35 43.42319 2.85727 26180 ft 373 kts 180°
2026-04-24 19:35 43.39730 2.85765 25796 ft 371 kts 180°
2026-04-24 19:35 43.37153 2.85802 25412 ft 369 kts 180°
2026-04-24 19:36 43.34589 2.85840 25034 ft 368 kts 180°
2026-04-24 19:36 43.32033 2.85877 24653 ft 367 kts 180°
2026-04-24 19:36 43.29488 2.85914 24274 ft 366 kts 180°
2026-04-24 19:36 43.26944 2.85951 23880 ft 365 kts 180°
2026-04-24 19:37 43.24408 2.85987 23452 ft 364 kts 180°
2026-04-24 19:37 43.21877 2.86024 23030 ft 363 kts 180°
2026-04-24 19:37 43.19363 2.86061 22630 ft 361 kts 180°
2026-04-24 19:37 43.16860 2.86097 22244 ft 358 kts 180°
2026-04-24 19:38 43.15069 2.86123 21972 ft 357 kts 180°
2026-04-24 19:38 43.12593 2.86159 21594 ft 355 kts 180°
2026-04-24 19:38 43.10132 2.86195 21225 ft 353 kts 180°
2026-04-24 19:38 43.07686 2.86230 20860 ft 351 kts 180°
2026-04-24 19:39 43.05255 2.86265 20496 ft 349 kts 180°
2026-04-24 19:39 43.02866 2.86300 20140 ft 347 kts 180°
2026-04-24 19:39 43.00459 2.86334 19779 ft 346 kts 180°
2026-04-24 19:39 42.98059 2.86369 19415 ft 344 kts 180°
2026-04-24 19:40 42.95668 2.86403 19060 ft 343 kts 180°
2026-04-24 19:40 42.93289 2.86438 18702 ft 342 kts 180°
2026-04-24 19:40 42.90916 2.86472 18331 ft 340 kts 180°
2026-04-24 19:40 42.88553 2.86506 17928 ft 339 kts 180°
2026-04-24 19:41 42.86199 2.86540 17543 ft 337 kts 180°
2026-04-24 19:41 42.83860 2.86573 17172 ft 335 kts 180°
2026-04-24 19:41 42.81533 2.86607 16815 ft 333 kts 180°
2026-04-24 19:41 42.79226 2.86640 16456 ft 331 kts 180°
2026-04-24 19:42 42.76929 2.86672 16107 ft 329 kts 180°
2026-04-24 19:42 42.74652 2.86865 15748 ft 327 kts 169°
2026-04-24 19:42 42.72464 2.87676 15418 ft 325 kts 162°
2026-04-24 19:42 42.70320 2.88621 15069 ft 323 kts 161°
2026-04-24 19:43 42.68788 2.89305 14827 ft 323 kts 161°
2026-04-24 19:43 42.66658 2.90252 14482 ft 322 kts 161°
2026-04-24 19:43 42.64532 2.91186 14137 ft 321 kts 161°
2026-04-24 19:43 42.62411 2.92109 13772 ft 320 kts 162°
2026-04-24 19:44 42.60294 2.93025 13390 ft 319 kts 162°
2026-04-24 19:44 42.58184 2.93933 13023 ft 317 kts 162°
2026-04-24 19:44 42.56083 2.94836 12669 ft 316 kts 162°
2026-04-24 19:44 42.53995 2.95732 12324 ft 314 kts 162°
2026-04-24 19:45 42.51917 2.96622 11980 ft 313 kts 162°
2026-04-24 19:45 42.49846 2.97508 11631 ft 311 kts 162°
2026-04-24 19:45 42.47723 2.98009 11279 ft 311 kts 182°
2026-04-24 19:45 42.45614 2.97479 10957 ft 308 kts 196°
2026-04-24 19:46 42.43560 2.96680 10622 ft 306 kts 197°
2026-04-24 19:46 42.41555 2.95872 10375 ft 302 kts 197°
2026-04-24 19:46 42.39567 2.95073 10237 ft 294 kts 197°
2026-04-24 19:46 42.37626 2.94304 10054 ft 289 kts 197°
2026-04-24 19:47 42.35698 2.93547 9733 ft 288 kts 197°
2026-04-24 19:47 42.33776 2.92798 9425 ft 287 kts 197°
2026-04-24 19:47 42.31866 2.92057 9127 ft 285 kts 197°
2026-04-24 19:47 42.29960 2.91320 8827 ft 284 kts 197°
2026-04-24 19:48 42.28670 2.90822 8634 ft 283 kts 197°
2026-04-24 19:48 42.26781 2.90094 8326 ft 282 kts 197°
2026-04-24 19:48 42.22936 2.88588 7338 ft 295 kts 197°
2026-04-24 19:49 42.18968 2.87049 6243 ft 295 kts 196°
2026-04-24 19:49 42.15108 2.85556 5258 ft 287 kts 197°
2026-04-24 19:50 42.09549 2.83437 4165 ft 269 kts 197°
2026-04-24 19:50 42.07780 2.82766 3812 ft 259 kts 197°
2026-04-24 19:51 42.04462 2.81507 3135 ft 234 kts 197°
2026-04-24 19:51 42.02971 2.80941 2826 ft 210 kts 197°
2026-04-24 19:52 42.00416 2.79971 2340 ft 173 kts 197°
2026-04-24 19:52 41.99305 2.79549 2120 ft 163 kts 197°
2026-04-24 19:52 41.98237 2.79144 1894 ft 155 kts 196°
2026-04-24 19:52 41.97235 2.78763 1692 ft 145 kts 197°
2026-04-24 19:53 41.96278 2.78400 1486 ft 142 kts 197°
2026-04-24 19:53 41.95322 2.78037 1302 ft 143 kts 197°
2026-04-24 19:53 41.93411 2.77312 927 ft 142 kts 196°
2026-04-24 19:54 41.92461 2.76953 699 ft 142 kts 196°
2026-04-24 19:54 41.91516 2.76596 510 ft 140 kts 196°
2026-04-24 19:54 41.90642 2.76263 459 ft 113 kts 196°
2026-04-24 19:54 41.90031 2.76032 427 ft 69 kts 195°
2026-04-24 19:55 41.89788 2.75941 420 ft 49 kts 195°
2026-04-24 19:55 41.89521 2.75927 408 ft 23 kts 90°
2026-04-24 19:55 41.89579 2.76073 411 ft 16 kts 53°
2026-04-24 19:55 41.89677 2.76128 416 ft 15 kts 16°
2026-04-24 19:56 41.89777 2.76166 416 ft 15 kts 15°
2026-04-24 19:56 41.89864 2.76198 425 ft 10 kts 15°
2026-04-24 19:56 41.89906 2.76261 418 ft 10 kts 96°
2026-04-24 19:56 41.89888 2.76352 419 ft 9 kts 104°
2026-04-24 19:57 41.89835 2.76392 415 ft 11 kts 192°
2026-04-24 19:57 41.89785 2.76390 419 ft 4 kts 136°
2026-04-24 19:57 41.89776 2.76432 418 ft 5 kts 106°
2026-04-24 19:57 41.89772 2.76448 415 ft 0 kts 106°